Regional Weather Roundup
Issued by NWS

Home | Current Version | Previous Version | Text Only | Print | Product List | Glossary On
Versions: 1 2 3 4 5 6 7 8 9 10 11 12 13 14 15 16 17 18 19 20 21 22 23 24 25 26 27 28 29 30 31 32 33 34 35 36 37 38 39 40 41 42 43 44 45 46 47 48 49 50
000
ASUS44 KMEG 210110
RWRTN
TENNESSEE HOURLY STATE WEATHER ROUNDUP
NATIONAL WEATHER SERVICE MEMPHIS TN
800 PM CDT FRI OCT 20 2017

TNZ002-004-019-021-049-052-054-088>092-210200-
WEST TENNESSEE

CITY           SKY/WX    TMP DP  RH WIND       PRES   REMARKS
MEMPHIS INTL   CLOUDY    69  56  62 SE6       30.10F
NWS MEMPHIS      N/A     63 N/A N/A MISG        N/A
JACKSON        CLOUDY    57  56  96 CALM      30.13F
DYERSBURG      PTCLDY    64  53  67 CALM      30.13S
SOMERVILLE     CLEAR     61  57  88 CALM      30.11F
COVINGTON      CLEAR     61  55  82 SE6       30.12S
UNION CITY     CLEAR     59  50  72 E3        30.13R
BOLIVAR        CLEAR     57  55  94 CALM      30.12F
HUNTINGDON     CLEAR     59  54  82 CALM      30.13S
LEXINGTON      CLEAR     57  55  94 CALM      30.15S
SELMER         CLEAR     61  50  67 CALM      30.14S
SAVANNAH       CLEAR     55  54  94 CALM      30.14S
$$

TNZ008-025-027-028-033-062-065-066-210200-
NORTH MIDDLE TENNESSEE

CITY           SKY/WX    TMP DP  RH WIND       PRES   REMARKS
NASHVILLE      CLOUDY    61  50  67 S5        30.18S
PORTLAND       CLEAR     55  50  82 CALM      30.17F
CLARKSVILLE    CLOUDY    60  48  64 CALM      30.17R
SMYRNA         CLOUDY    58  52  80 CALM      30.19R
COOKEVILLE     CLEAR     50  48  93 CALM      30.19S
GALLATIN       MOCLDY    57  50  77 CALM      30.20S HAZE
CROSSVILLE     CLOUDY    58  48  69 CALM      30.24S
$$

TNZ061-075-076-078-094-096-097-210200-
SOUTH MIDDLE TENNESSEE

CITY           SKY/WX    TMP DP  RH WIND       PRES   REMARKS
FAYETTEVILLE   CLEAR     59  52  77 CALM      30.19S
TULLAHOMA      CLEAR     54  52  94 CALM      30.21F
WINCHESTER     CLEAR     54  48  82 CALM        N/A
COLUMBIA       CLEAR     57  52  82 CALM      30.16S
SHELBYVILLE    CLEAR     57  52  82 E5        30.18F
$$

TNZ017-018-042-046-047-210200-
NORTHEAST TENNESSEE

CITY           SKY/WX    TMP DP  RH WIND       PRES   REMARKS
TRI CITIES     PTCLDY    54  50  86 CALM      30.24R
ELIZABETHTON   CLEAR     55  46  71 CALM      30.25R
$$

TNZ012-013-036-069-073-074-210200-
CENTRAL EAST TENNESSEE

CITY           SKY/WX    TMP DP  RH WIND       PRES   REMARKS
KNOXVILLE      MOCLDY    61  55  81 SW5       30.20R
OAK RIDGE      CLEAR     57  55  93 CALM      30.23R
DOWNTOWN KNOXV CLEAR     57  54  88 CALM      30.21S
GATLINBURG     CLEAR     57  48  72 CALM      30.21S
MORRISTOWN     CLEAR     61  48  63 CALM      30.22S
JACKSBORO      CLEAR     55  52  88 CALM      30.26R
$$

TNZ083-085-099-210200-
SOUTHEAST TENNESSEE

CITY           SKY/WX    TMP DP  RH WIND       PRES   REMARKS
CHATTANOOGA    PTCLDY    60  55  83 CALM      30.21R
DAYTON         CLEAR     57  57 100 CALM      30.20S
$$

SKY/WX REPORTED AS FAIR MEANS FEW OR NO CLOUDS BELOW
12 THOUSAND FEET.





USA.gov is the U.S. government's official web portal to all federal, state and local government web resources and services.